Home > Weather > Bandar-Abbas > Past weeks

Flag for Iran Past Weather in Bandar-Abbas, Iran — Yesterday and Last 2 Weeks

Now
81 °F

Fog.


Feels Like: 87 °F
Forecast: 76 / 96 °F
Wind: 5 mph from North

Location: Bandarabbass

Current Time: May 25, 2016 at 6:10:34 AM

Latest Report: May 25, 2016 at 5:30 AM


Visibility: 2 mi

Pressure: 29.53 "Hg

Humidity: 89%

Dew Point: 77 °F

Location of Bandar-AbbasLocation

Past Weather in Bandar-Abbas — Graph

°F

Bandar-Abbas Temperature Yesterday

Maximum temperature yesterday: 99 °F (at 2:30 PM)
Minimum temperature yesterday: 79 °F (at 5:30 AM)
Average temperature yesterday: 88 °F

High & Low Weather Summary for the Past Weeks

 TemperatureHumidityPressure
High104 °F (May 17, 6:30 PM)94% (May 15, 6:30 AM)29.77 "Hg (May 15, 6:30 AM)
Low75 °F (May 16, 3:30 AM)21% (May 17, 7:30 PM)29.45 "Hg (May 20, 5:30 PM)
Average90 °F58%29.61 "Hg
* Reported May 10 4:30 AM — May 25 4:30 AM, Bandar-Abbas, Weather by CustomWeather, © 2016

Note: Actual official high and low records may vary slightly from our data, if they occured in-between our weather recording intervals... More about our weather records

Advertising

Bandar-Abbas Weather History for the Previous 24 Hours

Scroll right to see more
 ConditionsComfort  
Time TempWeatherWind HumidityBarometerVisibility
4:30 AM
Wed, May 25
81 °FFog.5 mph89%29.53 "Hg2 mi
3:30 AM81 °FFog.5 mph89%29.53 "Hg2 mi
2:30 AM82 °FFog.5 mph89%29.56 "Hg2 mi
2:00 AM82 °FFog.5 mph94%29.56 "Hg2 mi
1:30 AM84 °FFog.5 mph89%29.56 "Hg2 mi
1:00 AM84 °FFog.7 mph89%29.56 "Hg2 mi
12:30 AM84 °FFog.7 mph89%29.56 "Hg2 mi
12:00 AM84 °FFog.7 mph89%29.56 "Hg2 mi
11:30 PM
Tue, May 24
84 °FFog.7 mph89%29.56 "Hg2 mi
11:00 PM84 °FFog.9 mph89%29.56 "Hg3 mi
10:30 PM84 °FClear.12 mph89%29.56 "Hg4 mi
10:00 PM86 °FClear.9 mph79%29.56 "Hg4 mi
9:30 PM86 °FClear.7 mph66%29.56 "Hg4 mi
9:00 PM88 °FClear.9 mph62%29.53 "Hg4 mi
8:30 PM88 °FClear.9 mph62%29.53 "Hg4 mi
8:00 PM88 °FClear.9 mph62%29.53 "Hg4 mi
7:30 PM90 °FClear.9 mph59%29.50 "Hg4 mi
7:00 PM91 °FClear.9 mph59%29.50 "Hg4 mi
6:30 PM93 °FClear.9 mph56%29.50 "Hg4 mi
6:00 PM93 °FClear.12 mph53%29.53 "Hg4 mi
5:55 PM93 °FClear.12 mph53%29.53 "Hg4 mi
5:30 PM95 °FClear.9 mph50%29.53 "Hg4 mi
5:00 PM95 °FClear.16 mph44%29.53 "Hg4 mi
4:30 PM97 °FClear.16 mph42%29.53 "Hg4 mi
4:00 PM95 °FClear.16 mph39%29.53 "Hg4 mi
3:30 PM97 °FClear.12 mph47%29.53 "Hg4 mi
3:00 PM97 °FClear.14 mph42%29.56 "Hg4 mi
2:30 PM99 °FClear.14 mph37%29.56 "Hg4 mi
2:00 PM97 °FClear.12 mph47%29.59 "Hg4 mi
1:30 PM97 °FClear.14 mph44%29.59 "Hg4 mi
1:00 PM97 °FClear.14 mph42%29.59 "Hg4 mi
12:30 PM93 °FClear.14 mph59%29.59 "Hg4 mi
12:00 PM91 °FClear.14 mph63%29.62 "Hg4 mi
11:30 AM91 °FClear.12 mph63%29.62 "Hg4 mi
11:00 AM91 °FHaze.12 mph67%29.62 "Hg3 mi
10:30 AM91 °FHaze.5 mph63%29.62 "Hg3 mi
10:00 AM91 °FHaze.5 mph59%29.62 "Hg3 mi
9:30 AM88 °FHaze.5 mph70%29.62 "Hg3 mi
9:00 AM86 °FHaze.5 mph79%29.62 "Hg2 mi
8:30 AM84 °FFog.7 mph84%29.62 "Hg2 mi
8:00 AM84 °FFog.7 mph84%29.62 "Hg2 mi
7:30 AM81 °FFog.7 mph94%29.62 "Hg2 mi
7:00 AM79 °FFog.5 mph94%29.62 "Hg2 mi
6:30 AM79 °FFog.5 mph89%29.59 "Hg2 mi
Weather by CustomWeather, © 2016

See weather overviewHow to use our weather pages